Location: Riverview Farm Park
(37.0930°N, 76.5291°W)
Time: 01:16:51
(UTC-05:00)

Tiangong 2 - Visible Passes

Search period start: 18 November 2017 00:00
Search period end: 28 November 2017 00:00
Orbit: 386 x 391 km, 42.8° (Epoch: 17 November)

Date Brightness Start Highest point End Pass type
(mag) Time Alt. Az. Time Alt. Az. Time Alt. Az.
25 Nov 4.0 05:42:10 10° S 05:44:22 17° SE 05:46:35 10° E visible
26 Nov 1.6 06:19:35 10° SW 06:22:44 62° SSE 06:25:53 10° ENE visible
27 Nov 2.6 05:22:52 19° SSW 05:24:35 33° SSE 05:27:31 10° E visible
